EDW45L BKPR-LSZH

Flight info

Callsign EDW45L
Flight time 1h 47m
Altitude 38000
Route KUKAD1D KUKAD DCT RETRA DCT GLOMY DCT RASTU DCT DARZA DCT GIMIX DCT ERKIR DCT KPT L856 NEGRA
Aircraft A320/M-SDE3FGHIRWY/LB1

Departure

Time 2026-05-04 13:49
Airport Priština Adem Jashari International Airport (BKPR)

Arrival

Time 2026-05-04 15:36
Airport Zürich Airport (LSZH)
Time Latitude Longitude Altitude Speed Heading
2026-05-04 13:19 42.57395 21.03149 1787 ft 0 kts 266°
2026-05-04 13:39 42.57396 21.03159 1787 ft 4 kts 266°
2026-05-04 13:39 42.57398 21.03200 1787 ft 4 kts 263°
2026-05-04 13:39 42.57401 21.03224 1786 ft 2 kts 223°
2026-05-04 13:40 42.57411 21.03232 1787 ft 2 kts 179°
2026-05-04 13:40 42.57422 21.03231 1787 ft 2 kts 176°
2026-05-04 13:40 42.57423 21.03231 1786 ft 0 kts 176°
2026-05-04 13:45 42.57414 21.03232 1785 ft 6 kts 175°
2026-05-04 13:45 42.57361 21.03237 1787 ft 8 kts 175°
2026-05-04 13:45 42.57325 21.03274 1787 ft 6 kts 94°
2026-05-04 13:46 42.57307 21.03341 1787 ft 10 kts 148°
2026-05-04 13:46 42.57229 21.03350 1787 ft 13 kts 175°
2026-05-04 13:46 42.57129 21.03360 1784 ft 15 kts 175°
2026-05-04 13:46 42.57031 21.03371 1786 ft 14 kts 175°
2026-05-04 13:47 42.56940 21.03379 1785 ft 16 kts 175°
2026-05-04 13:47 42.56850 21.03389 1782 ft 21 kts 175°
2026-05-04 13:47 42.56654 21.03409 1783 ft 21 kts 176°
2026-05-04 13:47 42.56556 21.03418 1783 ft 21 kts 176°
2026-05-04 13:48 42.56412 21.03432 1783 ft 20 kts 175°
2026-05-04 13:48 42.56335 21.03484 1786 ft 10 kts 115°
2026-05-04 13:48 42.56309 21.03567 1786 ft 10 kts 112°
2026-05-04 13:48 42.56314 21.03672 1785 ft 12 kts 49°
2026-05-04 13:49 42.56409 21.03678 1785 ft 24 kts 355°
2026-05-04 13:49 42.56880 21.03628 1784 ft 109 kts 356°
2026-05-04 13:49 42.57864 21.03522 1842 ft 169 kts 353°
2026-05-04 13:49 42.59054 21.03409 2714 ft 174 kts 357°
2026-05-04 13:50 42.60279 21.03303 3673 ft 180 kts 358°
2026-05-04 13:50 42.61602 21.03178 4017 ft 202 kts 358°
2026-05-04 13:50 42.63098 21.03010 4282 ft 230 kts 353°
2026-05-04 13:50 42.64647 21.02090 4620 ft 261 kts 320°
2026-05-04 13:51 42.65850 21.00174 5430 ft 271 kts 307°
2026-05-04 13:51 42.66878 20.97991 6325 ft 278 kts 303°
2026-05-04 13:51 42.67858 20.95700 7193 ft 283 kts 302°
2026-05-04 13:51 42.68761 20.93309 8087 ft 289 kts 288°
2026-05-04 13:52 42.67877 20.88102 9809 ft 301 kts 227°
2026-05-04 13:52 42.66305 20.86209 10606 ft 304 kts 219°
2026-05-04 13:52 42.64613 20.84450 11329 ft 309 kts 217°
2026-05-04 13:53 42.62857 20.82720 12030 ft 315 kts 216°
2026-05-04 13:53 42.61061 20.80975 12728 ft 321 kts 216°
2026-05-04 13:53 42.59237 20.79193 13422 ft 326 kts 217°
2026-05-04 13:54 42.55510 20.75484 14715 ft 337 kts 217°
2026-05-04 13:54 42.53620 20.73578 15361 ft 341 kts 218°
2026-05-04 13:54 42.50002 20.69362 16617 ft 346 kts 234°
2026-05-04 13:55 42.48651 20.66641 17011 ft 355 kts 246°
2026-05-04 13:55 42.46803 20.60165 17322 ft 387 kts 254°
2026-05-04 13:55 42.45870 20.56700 17778 ft 395 kts 254°
2026-05-04 13:56 42.44916 20.53198 18368 ft 398 kts 254°
2026-05-04 13:56 42.43947 20.49670 18893 ft 402 kts 253°
2026-05-04 13:56 42.41977 20.42538 19940 ft 407 kts 253°
2026-05-04 13:57 42.40982 20.38933 20455 ft 410 kts 253°
2026-05-04 13:57 42.39979 20.35306 20986 ft 412 kts 253°
2026-05-04 13:58 42.36936 20.24310 22524 ft 420 kts 253°
2026-05-04 13:58 42.35033 20.16825 23529 ft 420 kts 262°
2026-05-04 13:58 42.34471 20.12948 23978 ft 420 kts 263°
2026-05-04 13:59 42.33920 20.09064 24390 ft 422 kts 263°
2026-05-04 13:59 42.33366 20.05161 24822 ft 423 kts 263°
2026-05-04 13:59 42.32252 19.97330 25606 ft 426 kts 263°
2026-05-04 14:00 42.31687 19.93398 26011 ft 427 kts 263°
2026-05-04 14:00 42.30535 19.85510 26786 ft 430 kts 263°
2026-05-04 14:00 42.29952 19.81550 27166 ft 431 kts 263°
2026-05-04 14:01 42.29366 19.77572 27538 ft 432 kts 264°
2026-05-04 14:01 42.28780 19.73588 27902 ft 434 kts 264°
2026-05-04 14:01 42.27604 19.65551 28603 ft 438 kts 264°
2026-05-04 14:02 42.27010 19.61512 28982 ft 439 kts 264°
2026-05-04 14:02 42.26414 19.57452 29383 ft 441 kts 264°
2026-05-04 14:02 42.25816 19.53396 29686 ft 443 kts 264°
2026-05-04 14:02 42.25217 19.49366 30017 ft 444 kts 264°
2026-05-04 14:03 42.24608 19.45270 30316 ft 445 kts 265°
2026-05-04 14:03 42.24310 19.41153 30578 ft 439 kts 275°
2026-05-04 14:03 42.24593 19.37086 30840 ft 433 kts 286°
2026-05-04 14:03 42.25439 19.33216 31092 ft 428 kts 296°
2026-05-04 14:04 42.28604 19.26566 31557 ft 422 kts 316°
2026-05-04 14:04 42.30752 19.23849 31696 ft 425 kts 320°
2026-05-04 14:04 42.32953 19.21168 31878 ft 427 kts 320°
2026-05-04 14:05 42.37355 19.15778 32422 ft 427 kts 319°
2026-05-04 14:05 42.39560 19.13085 32704 ft 426 kts 319°
2026-05-04 14:05 42.41758 19.10395 33013 ft 425 kts 319°
2026-05-04 14:06 42.43946 19.07706 33337 ft 424 kts 319°
2026-05-04 14:06 42.46125 19.05025 33648 ft 424 kts 319°
2026-05-04 14:06 42.48305 19.02332 33948 ft 423 kts 319°
2026-05-04 14:06 42.50477 18.99648 34264 ft 422 kts 319°
2026-05-04 14:07 42.52641 18.96965 34517 ft 422 kts 319°
2026-05-04 14:07 42.54815 18.94278 34716 ft 423 kts 319°
2026-05-04 14:07 42.56991 18.91601 34955 ft 423 kts 319°
2026-05-04 14:07 42.59173 18.88908 35177 ft 423 kts 319°
2026-05-04 14:08 42.61347 18.86214 35415 ft 424 kts 319°
2026-05-04 14:08 42.63522 18.83516 35621 ft 424 kts 319°
2026-05-04 14:08 42.65704 18.80810 35822 ft 425 kts 319°
2026-05-04 14:08 42.67887 18.78106 36036 ft 425 kts 319°
2026-05-04 14:09 42.72251 18.72677 36435 ft 425 kts 318°
2026-05-04 14:09 42.74429 18.69958 36638 ft 425 kts 318°
2026-05-04 14:10 42.78798 18.64520 37016 ft 426 kts 318°
2026-05-04 14:10 42.80984 18.61792 37201 ft 426 kts 318°
2026-05-04 14:10 42.83170 18.59061 37397 ft 426 kts 318°
2026-05-04 14:10 42.85320 18.56366 37576 ft 426 kts 318°
2026-05-04 14:11 42.87498 18.53631 37749 ft 426 kts 318°
2026-05-04 14:11 42.91862 18.48147 38097 ft 427 kts 318°
2026-05-04 14:11 42.94047 18.45402 38125 ft 427 kts 318°
2026-05-04 14:12 42.98413 18.39915 38126 ft 427 kts 318°
2026-05-04 14:13 43.04956 18.31667 38126 ft 427 kts 318°
2026-05-04 14:13 43.09314 18.26161 38125 ft 426 kts 318°
2026-05-04 14:14 43.13662 18.20644 38121 ft 426 kts 317°
2026-05-04 14:14 43.20190 18.12342 38116 ft 427 kts 317°
2026-05-04 14:15 43.28897 18.01225 38113 ft 428 kts 317°
2026-05-04 14:16 43.35424 17.92873 38114 ft 428 kts 317°
2026-05-04 14:17 43.41917 17.84530 38114 ft 428 kts 317°
2026-05-04 14:18 43.48435 17.76143 38110 ft 428 kts 317°
2026-05-04 14:19 43.57123 17.64901 38104 ft 428 kts 317°
2026-05-04 14:19 43.61400 17.59181 38099 ft 429 kts 316°
2026-05-04 14:20 43.65655 17.53399 38096 ft 429 kts 316°
2026-05-04 14:20 43.69913 17.47630 38099 ft 429 kts 316°
2026-05-04 14:21 43.76322 17.38967 38088 ft 430 kts 316°
2026-05-04 14:21 43.80591 17.33178 38088 ft 430 kts 316°
2026-05-04 14:22 43.84861 17.27381 38085 ft 430 kts 316°
2026-05-04 14:22 43.89119 17.21576 38086 ft 430 kts 316°
2026-05-04 14:23 43.95509 17.12851 38085 ft 430 kts 316°
2026-05-04 14:24 43.99772 17.07015 38080 ft 430 kts 315°
2026-05-04 14:24 44.04019 17.01171 38081 ft 430 kts 315°
2026-05-04 14:25 44.08254 16.95357 38085 ft 431 kts 315°
2026-05-04 14:25 44.14640 16.86555 38089 ft 431 kts 315°
2026-05-04 14:26 44.18894 16.80667 38092 ft 431 kts 315°
2026-05-04 14:26 44.23150 16.74770 38095 ft 431 kts 315°
2026-05-04 14:27 44.27400 16.68861 38097 ft 432 kts 315°
2026-05-04 14:27 44.31657 16.62937 38105 ft 432 kts 315°
2026-05-04 14:28 44.35912 16.57004 38104 ft 432 kts 314°
2026-05-04 14:28 44.40166 16.51059 38104 ft 432 kts 315°
2026-05-04 14:29 44.48664 16.39133 38101 ft 433 kts 314°
2026-05-04 14:30 44.52911 16.33162 38097 ft 433 kts 314°
2026-05-04 14:31 44.59274 16.24177 38089 ft 433 kts 314°
2026-05-04 14:32 44.67756 16.12183 38086 ft 433 kts 314°
2026-05-04 14:32 44.71985 16.06178 38081 ft 432 kts 314°
2026-05-04 14:33 44.76184 16.00194 38077 ft 433 kts 313°
2026-05-04 14:33 44.80405 15.94155 38074 ft 433 kts 313°
2026-05-04 14:34 44.84626 15.88113 38071 ft 433 kts 313°
2026-05-04 14:34 44.88850 15.82065 38073 ft 433 kts 313°
2026-05-04 14:35 44.93068 15.76007 38068 ft 433 kts 313°
2026-05-04 14:35 44.97352 15.70040 38071 ft 433 kts 315°
2026-05-04 14:36 45.01789 15.64270 38066 ft 433 kts 316°
2026-05-04 14:36 45.06241 15.58520 38067 ft 434 kts 315°
2026-05-04 14:37 45.10662 15.52697 38066 ft 434 kts 315°
2026-05-04 14:37 45.15066 15.46846 38066 ft 434 kts 315°
2026-05-04 14:38 45.19465 15.40988 38066 ft 434 kts 315°
2026-05-04 14:38 45.23126 15.36106 38071 ft 435 kts 315°
2026-05-04 14:39 45.27535 15.30223 38068 ft 435 kts 315°
2026-05-04 14:39 45.31945 15.24329 38071 ft 435 kts 315°
2026-05-04 14:40 45.38561 15.15462 38072 ft 436 kts 315°
2026-05-04 14:40 45.42965 15.09524 38076 ft 436 kts 314°
2026-05-04 14:41 45.47372 15.03583 38077 ft 436 kts 315°
2026-05-04 14:42 45.56404 14.92074 38083 ft 437 kts 318°
2026-05-04 14:42 45.61059 14.86482 38089 ft 438 kts 317°
2026-05-04 14:43 45.65687 14.80839 38089 ft 437 kts 317°
2026-05-04 14:43 45.70287 14.75146 38086 ft 437 kts 317°
2026-05-04 14:44 45.74872 14.69419 38089 ft 438 kts 316°
2026-05-04 14:44 45.79445 14.63722 38086 ft 438 kts 317°
2026-05-04 14:45 45.84015 14.58036 38088 ft 438 kts 316°
2026-05-04 14:45 45.88622 14.52298 38094 ft 439 kts 317°
2026-05-04 14:46 45.93225 14.46554 38092 ft 439 kts 316°
2026-05-04 14:46 45.97821 14.40783 38088 ft 439 kts 316°
2026-05-04 14:47 46.02424 14.34989 38085 ft 439 kts 316°
2026-05-04 14:47 46.06988 14.29232 38083 ft 439 kts 316°
2026-05-04 14:48 46.11583 14.23425 38079 ft 440 kts 316°
2026-05-04 14:48 46.16175 14.17608 38080 ft 440 kts 316°
2026-05-04 14:49 46.20772 14.11781 38084 ft 440 kts 316°
2026-05-04 14:49 46.25362 14.05952 38082 ft 440 kts 316°
2026-05-04 14:50 46.29949 14.00095 38078 ft 440 kts 316°
2026-05-04 14:50 46.34531 13.94242 38074 ft 440 kts 316°
2026-05-04 14:51 46.39117 13.88373 38072 ft 440 kts 316°
2026-05-04 14:51 46.43697 13.82493 38070 ft 440 kts 316°
2026-05-04 14:52 46.48275 13.76595 38066 ft 440 kts 316°
2026-05-04 14:52 46.52790 13.70610 38062 ft 438 kts 310°
2026-05-04 14:53 46.56841 13.64000 38058 ft 438 kts 309°
2026-05-04 14:53 46.60893 13.57381 38057 ft 439 kts 309°
2026-05-04 14:54 46.64919 13.50786 38058 ft 439 kts 309°
2026-05-04 14:54 46.68974 13.44133 38058 ft 439 kts 309°
2026-05-04 14:55 46.73021 13.37470 38061 ft 439 kts 309°
2026-05-04 14:55 46.77066 13.30783 38060 ft 440 kts 309°
2026-05-04 14:56 46.81111 13.24092 38058 ft 440 kts 309°
2026-05-04 14:56 46.85157 13.17384 38050 ft 440 kts 309°
2026-05-04 14:57 46.89194 13.10668 38047 ft 440 kts 309°
2026-05-04 14:57 46.93227 13.03931 38041 ft 440 kts 309°
2026-05-04 14:58 46.97257 12.97192 38036 ft 440 kts 309°
2026-05-04 14:58 47.01292 12.90443 38035 ft 440 kts 309°
2026-05-04 14:59 47.05319 12.83682 38035 ft 440 kts 309°
2026-05-04 15:00 47.11317 12.73560 38016 ft 440 kts 309°
2026-05-04 15:00 47.15359 12.66734 38018 ft 440 kts 308°
2026-05-04 15:01 47.21368 12.56530 37997 ft 439 kts 308°
2026-05-04 15:01 47.25366 12.49728 37982 ft 440 kts 308°
2026-05-04 15:02 47.29371 12.42899 37987 ft 441 kts 308°
2026-05-04 15:02 47.33373 12.36062 37980 ft 440 kts 308°
2026-05-04 15:03 47.37341 12.29263 37971 ft 440 kts 308°
2026-05-04 15:03 47.41325 12.22424 37958 ft 440 kts 308°
2026-05-04 15:04 47.45305 12.15557 37953 ft 440 kts 308°
2026-05-04 15:04 47.49278 12.08688 37945 ft 439 kts 308°
2026-05-04 15:05 47.52898 12.01471 37941 ft 435 kts 295°
2026-05-04 15:05 47.54818 11.93078 37936 ft 430 kts 279°
2026-05-04 15:06 47.55963 11.84386 37934 ft 431 kts 279°
2026-05-04 15:07 47.57680 11.71321 37931 ft 431 kts 279°
2026-05-04 15:07 47.58813 11.62609 37930 ft 431 kts 279°
2026-05-04 15:08 47.59941 11.53878 37930 ft 431 kts 279°
2026-05-04 15:08 47.61057 11.45142 37933 ft 432 kts 279°
2026-05-04 15:09 47.62169 11.36392 37938 ft 432 kts 279°
2026-05-04 15:09 47.63276 11.27637 37945 ft 432 kts 278°
2026-05-04 15:10 47.64929 11.14491 37956 ft 433 kts 278°
2026-05-04 15:11 47.66568 11.01322 37967 ft 433 kts 278°
2026-05-04 15:11 47.67641 10.92592 37972 ft 433 kts 278°
2026-05-04 15:12 47.68717 10.83810 37975 ft 433 kts 278°
2026-05-04 15:12 47.69793 10.75006 37979 ft 433 kts 278°
2026-05-04 15:13 47.70861 10.66209 37978 ft 433 kts 278°
2026-05-04 15:13 47.71922 10.57401 37977 ft 433 kts 278°
2026-05-04 15:14 47.72971 10.48597 37977 ft 433 kts 278°
2026-05-04 15:14 47.73935 10.40410 37977 ft 433 kts 277°
2026-05-04 15:14 47.74416 10.36016 37822 ft 429 kts 274°
2026-05-04 15:15 47.74521 10.31612 37314 ft 422 kts 266°
2026-05-04 15:15 47.74438 10.27236 36495 ft 425 kts 266°
2026-05-04 15:15 47.74339 10.22844 35782 ft 426 kts 266°
2026-05-04 15:16 47.74117 10.13975 34160 ft 433 kts 265°
2026-05-04 15:16 47.74002 10.09482 33230 ft 437 kts 265°
2026-05-04 15:16 47.73775 10.00540 32080 ft 429 kts 265°
2026-05-04 15:17 47.73668 9.96143 31483 ft 425 kts 266°
2026-05-04 15:17 47.73461 9.87451 30334 ft 418 kts 266°
2026-05-04 15:17 47.73356 9.83134 29726 ft 416 kts 265°
2026-05-04 15:18 47.73246 9.78867 29156 ft 411 kts 265°
2026-05-04 15:18 47.73132 9.74644 28602 ft 406 kts 265°
2026-05-04 15:18 47.73017 9.70524 28063 ft 402 kts 265°
2026-05-04 15:19 47.72787 9.62311 27011 ft 394 kts 265°
2026-05-04 15:19 47.72674 9.58269 26502 ft 390 kts 265°
2026-05-04 15:19 47.72449 9.50312 25518 ft 382 kts 264°
2026-05-04 15:20 47.72203 9.46429 25041 ft 375 kts 256°
2026-05-04 15:20 47.71479 9.42752 24572 ft 368 kts 245°
2026-05-04 15:20 47.70312 9.39417 24121 ft 362 kts 234°
2026-05-04 15:20 47.68792 9.36472 23666 ft 358 kts 229°
2026-05-04 15:21 47.67224 9.33632 23166 ft 355 kts 229°
2026-05-04 15:21 47.65668 9.30808 22711 ft 351 kts 229°
2026-05-04 15:21 47.62613 9.25259 21806 ft 344 kts 229°
2026-05-04 15:22 47.61113 9.22521 21360 ft 341 kts 231°
2026-05-04 15:22 47.59834 9.19573 20908 ft 341 kts 242°
2026-05-04 15:22 47.58514 9.12824 19968 ft 343 kts 257°
2026-05-04 15:23 47.58091 9.09347 19510 ft 343 kts 257°
2026-05-04 15:23 47.57799 9.05841 19026 ft 345 kts 266°
2026-05-04 15:23 47.57998 9.02295 18557 ft 349 kts 278°
2026-05-04 15:23 47.58719 8.98845 18048 ft 352 kts 289°
2026-05-04 15:24 47.60564 8.92138 17070 ft 350 kts 289°
2026-05-04 15:24 47.62346 8.85437 16138 ft 347 kts 284°
2026-05-04 15:25 47.62763 8.81998 15703 ft 343 kts 271°
2026-05-04 15:25 47.62636 8.78455 15247 ft 339 kts 258°
2026-05-04 15:25 47.61993 8.75160 14787 ft 337 kts 246°
2026-05-04 15:26 47.60180 8.68769 13881 ft 336 kts 246°
2026-05-04 15:26 47.59397 8.65503 13394 ft 337 kts 257°
2026-05-04 15:26 47.59956 8.58718 12500 ft 338 kts 295°
2026-05-04 15:27 47.61281 8.55881 12132 ft 336 kts 311°
2026-05-04 15:27 47.64728 8.51050 10979 ft 341 kts 316°
2026-05-04 15:28 47.68188 8.46363 10181 ft 323 kts 316°
2026-05-04 15:28 47.69786 8.44202 10118 ft 299 kts 316°
2026-05-04 15:28 47.72684 8.40224 9559 ft 276 kts 312°
2026-05-04 15:29 47.73693 8.37880 9119 ft 267 kts 285°
2026-05-04 15:30 47.71141 8.29159 7565 ft 234 kts 225°
2026-05-04 15:30 47.66921 8.27939 6377 ft 234 kts 143°
2026-05-04 15:31 47.64520 8.31208 5736 ft 235 kts 137°
2026-05-04 15:31 47.63327 8.32861 5415 ft 233 kts 137°
2026-05-04 15:32 47.60352 8.36955 4649 ft 205 kts 136°
2026-05-04 15:32 47.58322 8.39746 4112 ft 197 kts 137°
2026-05-04 15:33 47.56385 8.42407 3590 ft 179 kts 138°
2026-05-04 15:34 47.53769 8.45995 2919 ft 155 kts 138°
2026-05-04 15:34 47.52986 8.47067 2777 ft 152 kts 139°
2026-05-04 15:34 47.51438 8.49190 2309 ft 151 kts 139°
2026-05-04 15:35 47.49914 8.51272 1892 ft 148 kts 137°
2026-05-04 15:35 47.49164 8.52311 1721 ft 148 kts 137°
2026-05-04 15:35 47.48408 8.53348 1522 ft 149 kts 138°
2026-05-04 15:36 47.47104 8.55115 1387 ft 88 kts 137°
2026-05-04 15:36 47.46727 8.55632 1398 ft 62 kts 137°
2026-05-04 15:36 47.46466 8.55921 1404 ft 37 kts 160°
2026-05-04 15:37 47.46344 8.55968 1408 ft 12 kts 167°
2026-05-04 15:37 47.46277 8.55992 1409 ft 10 kts 166°
2026-05-04 15:37 47.46195 8.56006 1406 ft 14 kts 186°
2026-05-04 15:37 47.46086 8.55989 1407 ft 16 kts 185°
2026-05-04 15:38 47.45972 8.55969 1406 ft 17 kts 193°
2026-05-04 15:38 47.45861 8.55913 1412 ft 16 kts 200°
2026-05-04 15:38 47.45760 8.55874 1409 ft 15 kts 186°
2026-05-04 15:38 47.45666 8.55861 1408 ft 10 kts 189°
2026-05-04 15:39 47.45645 8.55755 1413 ft 14 kts 277°
2026-05-04 15:39 47.45657 8.55594 1404 ft 18 kts 276°
2026-05-04 15:39 47.45643 8.55334 1401 ft 13 kts 188°
2026-05-04 15:40 47.45563 8.55381 1404 ft 13 kts 154°
2026-05-04 15:40 47.45468 8.55446 1408 ft 15 kts 155°
2026-05-04 15:40 47.45374 8.55512 1406 ft 14 kts 155°
2026-05-04 15:40 47.45276 8.55570 1407 ft 15 kts 167°
2026-05-04 15:41 47.45178 8.55617 1410 ft 15 kts 155°
2026-05-04 15:41 47.45091 8.55678 1407 ft 13 kts 154°
2026-05-04 15:41 47.45040 8.55714 1411 ft 3 kts 155°
2026-05-04 15:41 47.45035 8.55717 1410 ft 0 kts 155°
2026-05-04 15:43 47.45028 8.55722 1407 ft 6 kts 155°
2026-05-04 15:43 47.44966 8.55778 1408 ft 13 kts 129°
2026-05-04 15:43 47.44947 8.55895 1402 ft 10 kts 95°
2026-05-04 15:43 47.44894 8.55968 1406 ft 12 kts 155°
2026-05-04 15:44 47.44839 8.56003 1406 ft 5 kts 163°
2026-05-04 15:44 47.44818 8.55969 1400 ft 7 kts 242°
2026-05-04 15:44 47.44801 8.55911 1399 ft 4 kts 246°
2026-05-04 15:44 47.44797 8.55898 1404 ft 0 kts 245°